Waarnemingen

Advertentie
Mijn weer
Guernsey, Groot Brittannië (3894): temperatuur & dauwpunt: 17.04.2018 18:00:00 - 23.04.2018 18:00:00 (BST)Guernsey, Groot Brittannië (3894): temperatuur -20cm & temperatuur -100cm: 17.04.2018 18:00:00 - 23.04.2018 18:00:00 (BST)Guernsey, Groot Brittannië (3894): windsnelheid: 17.04.2018 18:00:00 - 23.04.2018 18:00:00 (BST)Guernsey, Groot Brittannië (3894): windrichting: 17.04.2018 18:00:00 - 23.04.2018 18:00:00 (BST)Guernsey, Groot Brittannië (3894): luchtdruk: 17.04.2018 18:00:00 - 23.04.2018 18:00:00 (BST)Guernsey, Groot Brittannië (3894): zicht: 17.04.2018 18:00:00 - 23.04.2018 18:00:00 (BST)Guernsey, Groot Brittannië (3894): neerslag: 17.04.2018 18:00:00 - 23.04.2018 18:00:00 (BST)
Datum & Tijd tt [°C] td [°C] tt -20cm [°C] tt -100cm [°C] ff [km/u] ff [kn] dd ppp [hPa] vv [km] rr [mm]
23.04.2018 18:00:00 12,0 7,0 - - 24 13 WZW - 10 -
23.04.2018 17:00:00 11,7 7,3 - - 24 13 WZW 1020,6 10 -
23.04.2018 16:00:00 12,0 9,1 - - 18 10 WZW 1020,8 10 -
23.04.2018 15:00:00 11,5 7,9 - - 22 12 WZW 1021,2 10 -
23.04.2018 14:00:00 11,6 7,7 - - 21 11 W 1021,4 10 -
23.04.2018 13:00:00 11,9 6,9 - - 22 12 WZW 1021,3 10 0,0
23.04.2018 12:00:00 11,7 8,3 - - 18 10 WZW 1021,2 10 -
23.04.2018 11:00:00 10,4 8,0 - - 16 9 W 1021,1 10 -
23.04.2018 10:00:00 10,3 7,6 13,7 11,7 15 8 W 1020,5 10 -
23.04.2018 09:00:00 10,2 9,5 - - 15 8 W 1020,1 10 -
23.04.2018 08:00:00 9,7 9,3 - - 15 8 W 1019,9 10 -
23.04.2018 07:00:00 9,1 8,8 - - 13 7 W 1019,1 10 0,0
23.04.2018 06:00:00 8,6 8,3 - - 15 8 W 1018,5 10 -
23.04.2018 05:00:00 8,5 8,1 - - 13 7 W 1018,1 10 -
23.04.2018 04:00:00 8,6 8,2 - - 15 8 WNW 1017,7 10 -
23.04.2018 03:00:00 8,7 8,4 - - 18 10 WNW 1017,7 15 -
23.04.2018 02:00:00 8,7 8,6 - - 15 8 WNW 1017,5 15 -
23.04.2018 01:00:00 9,1 8,8 - - 16 9 WZW 1017,2 25 0,0
23.04.2018 00:00:00 9,1 8,8 - - 21 11 WNW 1016,7 25 -
22.04.2018 23:00:00 9,3 9,0 - - 18 10 WNW 1016,4 25 -
22.04.2018 22:00:00 9,7 9,4 - - 21 11 W 1015,9 20 -
22.04.2018 21:00:00 10,4 10,2 - - 24 13 W 1015,2 10 -
22.04.2018 20:00:00 10,7 10,3 - - 21 11 W 1014,4 10 -
22.04.2018 19:00:00 11,0 10,2 - - 22 12 W 1013,9 10 -
22.04.2018 18:00:00 11,2 10,5 - - 18 10 WNW 1013,6 10 -
22.04.2018 17:00:00 11,4 10,4 - - 22 12 W 1013,2 5 -
22.04.2018 16:00:00 11,1 9,5 - - 22 12 W 1013,6 6 -
22.04.2018 15:00:00 11,8 10,1 - - 21 11 W 1013,2 5 -
22.04.2018 14:00:00 12,0 10,5 - - 15 8 W 1012,6 5 -
22.04.2018 13:00:00 11,4 10,2 - - 21 11 W 1012,5 6 0,0
22.04.2018 12:00:00 11,9 11,3 - - 18 10 W 1012,1 4,0 -
22.04.2018 11:00:00 10,8 10,5 - - 26 14 WZW 1012,3 0,3 -
22.04.2018 10:00:00 13,1 10,5 14,2 11,4 18 10 WZW 1011,8 10 -
22.04.2018 09:00:00 13,8 8,9 - - 15 8 WZW 1011,6 10 -
22.04.2018 08:00:00 13,1 8,3 - - 16 9 ZW 1011,2 10 -
22.04.2018 07:00:00 12,3 7,9 - - 18 10 Z 1011,5 10 0,0
22.04.2018 06:00:00 11,6 8,5 - - 16 9 Z 1011,2 10 -
22.04.2018 05:00:00 11,9 10,1 - - 18 10 Z 1011,5 10 -
22.04.2018 04:00:00 13,3 10,9 - - 13 7 Z 1011,7 10 -
22.04.2018 03:00:00 13,3 10,9 - - 8 4 WZW 1012,4 25 -
22.04.2018 02:00:00 14,2 11,6 - - 8 4 W 1013,0 25 -
22.04.2018 01:00:00 13,9 11,2 - - 13 7 W 1013,4 10 0,0
22.04.2018 00:00:00 13,7 10,7 - - 15 8 ZW 1013,6 10 -
21.04.2018 23:00:00 15,3 10,3 - - 16 9 ZZO 1013,5 30 -
21.04.2018 22:00:00 16,0 11,4 - - 16 9 ZO 1013,8 30 -
21.04.2018 21:00:00 16,6 12,4 - - 16 9 OZO 1013,6 10 -
21.04.2018 20:00:00 17,0 13,3 - - 4 2 ONO 1014,0 10 -
21.04.2018 19:00:00 19,5 13,1 - - 8 4 ZO 1014,0 10 -
21.04.2018 18:00:00 19,8 12,9 - - 16 9 ZO 1014,4 10 -
21.04.2018 17:00:00 20,9 13,1 - - 15 8 ZO 1015,1 10 -
21.04.2018 16:00:00 21,9 13,7 - - 15 8 OZO 1015,6 10 -
21.04.2018 15:00:00 22,8 13,4 - - 18 10 ZO 1016,5 10 -
21.04.2018 14:00:00 22,5 13,8 - - 18 10 OZO 1017,1 10 -
21.04.2018 13:00:00 21,8 12,0 - - 18 10 OZO 1017,7 10 0,0
21.04.2018 12:00:00 22,4 12,5 - - 18 10 OZO 1018,3 10 -
21.04.2018 11:00:00 21,4 11,7 - - 13 7 ZO 1018,9 10 -
21.04.2018 10:00:00 20,8 12,0 13,7 11,0 15 8 OZO 1019,1 10 -
21.04.2018 09:00:00 19,5 10,5 - - 15 8 O 1019,2 10 -
21.04.2018 08:00:00 15,6 10,8 - - 15 8 OZO 1019,5 10 -
21.04.2018 07:00:00 16,5 11,8 - - 18 10 O 1019,9 10 0,0
21.04.2018 06:00:00 16,2 12,2 - - 16 9 OZO 1019,5 10 -
21.04.2018 05:00:00 14,1 9,5 - - 11 6 O 1019,8 10 -
21.04.2018 04:00:00 11,6 8,9 - - 11 6 O 1020,5 10 -
21.04.2018 03:00:00 11,9 9,0 - - 9 5 O 1021,2 40 -
21.04.2018 02:00:00 11,8 9,4 - - 9 5 O 1021,6 40 -
21.04.2018 01:00:00 11,2 9,4 - - 9 5 NO 1022,0 40 0,0
21.04.2018 00:00:00 15,7 8,8 - - 11 6 OZO 1022,0 35 -
20.04.2018 23:00:00 16,1 9,8 - - 15 8 OZO 1022,3 30 -
20.04.2018 22:00:00 13,4 9,6 - - 9 5 O 1022,7 30 -
20.04.2018 21:00:00 13,7 8,7 - - 11 6 NO 1022,4 10 -
20.04.2018 20:00:00 14,8 9,2 - - 13 7 NO 1022,4 10 -
20.04.2018 19:00:00 15,8 9,3 - - 15 8 NNO 1022,5 10 0,0
20.04.2018 18:00:00 17,0 10,5 - - 16 9 NNO 1022,6 10 -
20.04.2018 17:00:00 17,1 10,9 - - 13 7 NNO 1022,9 10 -
20.04.2018 16:00:00 17,7 11,4 - - 13 7 NO 1023,3 10 -
20.04.2018 15:00:00 18,2 11,1 - - 13 7 NNO 1023,6 10 -
20.04.2018 14:00:00 18,4 11,8 - - 11 6 NNO 1023,8 10 -
20.04.2018 13:00:00 17,2 12,8 - - 9 5 N 1024,2 10 0,0
20.04.2018 12:00:00 18,7 12,8 - - 9 5 NO 1024,4 10 -
20.04.2018 11:00:00 17,6 12,2 - - 8 4 NNO 1024,4 10 -
20.04.2018 10:00:00 16,5 12,9 13,4 10,9 8 4 NNW 1024,3 10 -
20.04.2018 09:00:00 15,3 11,4 - - 4 2 - 1024,2 10 -
20.04.2018 08:00:00 12,9 10,4 - - 9 5 N 1023,9 10 -
20.04.2018 07:00:00 12,1 8,1 - - 9 5 NO 1023,5 10 0,0
20.04.2018 06:00:00 11,1 8,1 - - 9 5 NNO 1023,4 10 -
20.04.2018 05:00:00 11,7 7,9 - - 11 6 NO 1023,1 10 -
20.04.2018 04:00:00 11,9 7,8 - - 11 6 NNO 1023,3 10 -
20.04.2018 03:00:00 11,9 8,3 - - 11 6 NO 1023,4 45 -
20.04.2018 02:00:00 12,0 8,6 - - 9 5 NO 1023,7 45 -
20.04.2018 01:00:00 11,9 9,2 - - 9 5 N 1023,8 40 0,0
20.04.2018 00:00:00 11,8 8,9 - - 8 4 N 1024,2 45 -
19.04.2018 23:00:00 11,5 9,2 - - 9 5 N 1024,2 10 -
19.04.2018 22:00:00 11,5 9,2 - - 11 6 NNO 1024,2 10 -
19.04.2018 21:00:00 11,7 9,0 - - 9 5 N 1023,9 10 -
19.04.2018 20:00:00 12,9 9,3 - - 9 5 N 1023,4 10 -
19.04.2018 19:00:00 14,9 10,0 - - 9 5 N 1023,5 10 0,0
19.04.2018 18:00:00 15,4 10,1 - - 11 6 N 1023,5 10 -
19.04.2018 17:00:00 15,5 10,0 - - 15 8 N 1023,5 10 -
19.04.2018 16:00:00 16,2 10,0 - - 13 7 N 1023,6 10 -
19.04.2018 15:00:00 16,8 11,0 - - 13 7 NW 1023,8 10 -
19.04.2018 14:00:00 18,7 10,6 - - 11 6 NNW 1024,0 10 -
19.04.2018 13:00:00 18,9 10,2 - - 8 4 N 1024,0 10 0,0
19.04.2018 12:00:00 18,3 11,7 - - 8 4 NNO 1024,0 10 -
19.04.2018 11:00:00 16,6 11,4 - - 9 5 N 1023,9 10 -
19.04.2018 10:00:00 16,0 10,5 13,0 10,7 11 6 NNW 1023,7 10 -
19.04.2018 09:00:00 14,5 9,7 - - 9 5 WNW 1023,6 40 -
19.04.2018 08:00:00 12,7 9,2 - - 9 5 WNW 1023,4 10 -
19.04.2018 07:00:00 11,9 8,9 - - 9 5 WNW 1023,0 40 0,0
19.04.2018 06:00:00 12,0 9,5 - - 9 5 ZZO 1022,3 45 -
19.04.2018 05:00:00 14,2 9,3 - - 9 5 ZZO 1022,0 50 -
19.04.2018 04:00:00 12,6 10,0 - - 8 4 W 1022,6 35 -
19.04.2018 03:00:00 13,7 10,0 - - 13 7 ZZO 1022,3 40 -
19.04.2018 02:00:00 14,0 10,2 - - 13 7 ZZO 1022,6 40 -
19.04.2018 01:00:00 16,5 10,2 - - 15 8 ZO 1022,5 40 0,0
19.04.2018 00:00:00 17,4 9,5 - - 15 8 ZO 1022,7 50 -
18.04.2018 23:00:00 17,4 9,9 - - 21 11 ZO 1022,7 50 -
18.04.2018 22:00:00 17,8 9,9 - - 21 11 ZO 1022,6 10 -
18.04.2018 21:00:00 18,6 9,6 - - 22 12 ZO 1022,2 10 -
18.04.2018 20:00:00 19,2 9,2 - - 21 11 ZO 1021,8 10 -
18.04.2018 19:00:00 20,7 9,4 - - 18 10 ZO 1022,0 10 0,0
18.04.2018 18:00:00 20,9 9,5 - - 22 12 ZO 1022,3 10 -
18.04.2018 17:00:00 21,5 9,1 - - 21 11 ZO 1022,6 10 -
18.04.2018 16:00:00 21,7 9,3 - - 21 11 ZO 1022,8 10 -
18.04.2018 15:00:00 20,9 9,3 - - 21 11 ZO 1023,3 10 -
18.04.2018 14:00:00 20,4 10,1 - - 22 12 ZO 1023,6 10 -
18.04.2018 13:00:00 20,3 10,1 - - 26 14 OZO 1024,3 10 0,0
18.04.2018 12:00:00 19,2 10,5 - - 24 13 OZO 1024,9 10 -
18.04.2018 11:00:00 18,1 10,3 - - 18 10 OZO 1025,7 10 -
18.04.2018 10:00:00 16,9 10,5 12,2 10,5 16 9 OZO 1026,2 10 -
18.04.2018 09:00:00 14,9 10,5 - - 16 9 ZO 1026,2 10 -
18.04.2018 08:00:00 12,8 9,9 - - 18 10 ZO 1026,6 10 -
18.04.2018 07:00:00 11,8 9,4 - - 16 9 ZO 1026,4 10 0,0
18.04.2018 06:00:00 11,9 9,6 - - 16 9 ZZO 1026,2 10 -
18.04.2018 05:00:00 11,9 9,0 - - 18 10 ZZO 1026,2 10 -
18.04.2018 04:00:00 12,3 9,0 - - 22 12 Z 1026,0 10 -
18.04.2018 03:00:00 11,1 9,0 - - 21 11 Z 1025,9 30 -
18.04.2018 02:00:00 11,5 9,0 - - 22 12 Z 1025,7 30 -
18.04.2018 01:00:00 11,6 9,5 - - 22 12 Z 1025,5 35 0,0
18.04.2018 00:00:00 11,3 9,4 - - 21 11 Z 1025,2 30 -
17.04.2018 23:00:00 11,7 9,7 - - 18 10 Z 1024,8 30 -
17.04.2018 22:00:00 11,9 9,6 - - 22 12 Z 1024,5 30 -
17.04.2018 21:00:00 12,3 9,5 - - 21 11 Z 1023,9 10 -
17.04.2018 20:00:00 12,6 9,2 - - 18 10 Z 1023,0 10 -
17.04.2018 19:00:00 13,9 9,6 - - 21 11 Z 1022,5 10 0,0
17.04.2018 18:00:00 14,0 9,8 - - 21 11 Z 1022,1 10 -

tt = temperatuur
td = dauwpunt
tt -20cm = temperatuur -20cm
tt -100cm = temperatuur -100cm
ff = windsnelheid
dd = windrichting
ppp = luchtdruk
vv = zicht
rr = neerslag

Weerstations in de omgeving